Voltar ao catálogo

CZ-7A R/B

AtivoHEO
NORAD 64063·ROCKET BODY·🇨🇳 China

Lançado May 20, 2025 de Wenchang Space Launch Site

Loading…

Próximas Passagens (próximas 24 horas)

TLE

AtualizadoSource: Space-Track

Época: Sep 14, 2026, 02:52 UTC

1 64063U 25106B   26257.11949076  .00119790 -19633-6  14484-2 0  9991
2 64063  15.3584 164.9335 6298574 332.0246   5.1664  3.69345153 14274

Acompanhe CZ-7A R/B em tempo real com AllMySat

Download on the App Store